Location: Newark
(46.7000°N, 60.6000°W)
Time: 05:08:17
(UTC+00:00)

Transit 2A Rocket - Pass Details

Date: 03 November 2020
Orbit: 588 x 914 km, 66.7° (Epoch: 29 November)

Event Time Altitude Azimuth Distance (km) Brightness Sun altitude
Rises 11:31:34 0° 189° (S) 3,533 8.7 5.9°
Reaches altitude 10° 11:34:14 10° 182° (S) 2,595 8.2 6.3°
Maximum altitude 11:39:52 41° 114° (ESE) 1,271 7.2 7.1°
Drops below altitude 10° 11:45:21 10° 46° (NE) 2,519 7.9 7.9°
Sets 11:47:53 0° 39° (NE) 3,420 8.5 8.3°
